Regional Weather Roundup
Issued by NWS

Home | Current Version | Previous Version | Text Only | Print | Product List | Glossary On
Versions: 1 2 3 4 5 6 7 8 9 10 11 12 13 14 15 16 17 18 19 20 21 22 23 24 25 26 27 28 29 30 31 32 33 34 35 36 37 38 39 40 41 42 43 44 45 46 47 48 49 50
000
ASUS43 KOAX 061310
RWRNE

WEATHER ROUNDUP FOR NEBRASKA
NATIONAL WEATHER SERVICE OMAHA NE
700 AM CST FRI MAR 06 2015

NOTES: SATELLITE DATA IS BEING USED TO AUGMENT CLOUD COVER ABOVE
       12000 FEET.
       "FAIR" INDICATES FEW OR NO CLOUDS BELOW 12,000 FEET WITH NO
       SIGNIFICANT WEATHER AND/OR OBSTRUCTIONS TO VISIBILITY.

  * THESE STATIONS DO NOT REPORT WEATHER SUCH AS RAIN...SNOW OR FOG.

NEZ001>004-019>022-054>056-061400-
NEBRASKA PANHANDLE

CITY           SKY/WX    TMP DP  RH WIND       PRES   REMARKS
SCOTTSBLUFF    CLEAR     25  19  78 N5        30.22R WCI  19
ALLIANCE       PTCLDY    23  18  81 W12       30.18R WCI  12
CHADRON        MOCLDY    30  23  75 SW8       30.19R WCI  22
KIMBALL        CLEAR     31  19  61 W12       30.21S WCI  21
SIDNEY         CLEAR     29  18  63 W13       30.22R WCI  19
$$

NEZ057>060-069>072-079>082-061400-
SOUTHWEST NEBRASKA

CITY           SKY/WX    TMP DP  RH WIND       PRES   REMARKS
NORTH PLATTE   CLEAR     15  12  88 NW7       30.21S WCI   5
IMPERIAL         N/A     27  17  66 W12       30.23S WCI  17
LEXINGTON      CLEAR     17  13  83 NW6       30.22S WCI   9
MCCOOK         CLEAR     24  17  74 W13       30.25S WCI  12
OGALLALA       CLEAR     21  18  88 W7        30.23R WCI  13
$$

NEZ005>010-023>029-035>040-094-061400-
NORTH CENTRAL NEBRASKA

CITY           SKY/WX    TMP DP  RH WIND       PRES   REMARKS
VALENTINE      PTCLDY    24  18  77 SW9       30.14S WCI  14
AINSWORTH      PTCLDY    26  19  72 W6        30.14S WCI  20
BROKEN BOW     CLEAR     30  16  56 N3        30.18R
O`NEILL        CLEAR     25  20  79 W7        30.14S WCI  17
ORD            CLEAR     15   9  76 NW3       30.18R
THEDFORD       CLEAR     23  17  80 W3        30.16F
$$

NEZ041-046>049-061>064-073>077-083>087-061400-
SOUTH CENTRAL NEBRASKA

CITY           SKY/WX    TMP DP  RH WIND       PRES   REMARKS
GRAND ISLAND   CLEAR     22  14  71 W8        30.20S WCI  12
AURORA         CLEAR     23  14  69 W7        30.20R WCI  14
HASTINGS       CLEAR     26  14  60 W8        30.20S WCI  18
HEBRON         CLEAR     26  14  61 W6        30.24R WCI  19
HOLDREGE       CLEAR     28  17  64 W12       30.21F WCI  17
KEARNEY *      CLEAR     27  14  59 W7        30.21S WCI  19
YORK           CLEAR     18  14  86 W9        30.20R WCI   6
$$

NEZ011>018-030>034-042>045-061400-
NORTHEAST NEBRASKA

CITY           SKY/WX    TMP DP  RH WIND       PRES   REMARKS
NORFOLK        CLEAR     20  11  68 NW5       30.15S WCI  13
ALBION         PTCLDY    19  10  66 CALM      30.17S
BLAIR          CLEAR     25  15  65 W9        30.16S WCI  15
COLUMBUS *     CLEAR     14   1  57 W5        30.19S WCI   6
FREMONT        CLEAR     19  12  73 NW3       30.17F
TEKAMAH        CLEAR     17  10  74 CALM      30.18R
WAYNE          PTCLDY    21  12  67 SW6       30.14S WCI  14
$$

NEZ050>053-065>068-078-088>093-061400-
SOUTHEAST NEBRASKA

CITY           SKY/WX    TMP DP  RH WIND       PRES   REMARKS
LINCOLN        CLEAR     19  12  74 S6        30.22R WCI  11
OMAHA EPPLEY   PTCLDY    20  14  77 S9        30.20S WCI   9
BEATRICE       CLEAR     21  15  75 SW5       30.24R WCI  15
FALLS CITY     CLEAR     28  19  69 SW5       30.24S WCI  23
NEBRASKA CITY  PTCLDY    26  15  61 SW16      30.20R WCI  14
PLATTSMOUTH    PTCLDY    24  14  65 SW9       30.19S WCI  15
$$

NEZ044-045-051>053-067-061400-
OMAHA AREA

CITY           SKY/WX    TMP DP  RH WIND       PRES   REMARKS
OMAHA EPPLEY   PTCLDY    20  14  77 S9        30.20S WCI   9
BLAIR          CLEAR     25  15  65 W9        30.16S WCI  15
FREMONT        CLEAR     19  12  73 NW3       30.17F
MILLARD        CLEAR     18  13  82 CALM      30.19S
OFFUTT AFB     CLEAR     15  11  83 CALM      30.18S
PLATTSMOUTH    PTCLDY    24  14  65 SW9       30.19S WCI  15
WAHOO          FAIR      22  11  61 CALM      30.18S
$$



USA.gov is the U.S. government's official web portal to all federal, state and local government web resources and services.